GW4960 Weather Reports


time (UTC)temp
F
wind
direction
speed
knots
gust
knots
rain 1hr
in
rain 24hr
in
rain mn
in
humidity
%
barometer
mb
20260508140004 66 138 1.7 2.6 0.00 0.04 0.00 47 1019.8
20260508135223 64 61 1.7 1.7 0.00 0.04 0.00 55 1019.7
20260508134723 64 2 1.7 3.5 0.00 0.04 0.00 53 1019.7
20260508133723 63 45 0.9 2.6 0.00 0.05 0.00 57 1019.7
20260508132743 63 334 2.6 5.2 0.00 0.05 0.00 55 1019.6
20260508131723 63 314 1.7 2.6 0.00 0.05 0.00 57 1019.6
20260508130723 62 349 0.9 1.7 0.00 0.05 0.00 58 1019.5
20260508125723 62 179 3.5 3.5 0.00 0.05 0.00 62 1019.5
20260508124723 60 36 2.6 3.5 0.00 0.05 0.00 64 1019.4
20260508123723 60 8 1.7 2.6 0.00 0.05 0.00 65 1019.2
20260508122743 59 42 1.7 3.5 0.00 0.05 0.00 69 1019.1
20260508121723 57 28 0.9 1.7 0.00 0.06 0.00 76 1019.0
20260508120723 54 10 1.7 2.6 0.00 0.06 0.00 84 1018.8
20260508115723 51 0.0 0.0 0.00 0.07 0.00 96 1018.8
20260508114723 49 0.0 0.0 0.00 0.11 0.00 96 1018.7
20260508113723 49 0.0 0.0 0.00 0.14 0.00 96 1018.5
20260508112723 48 0.0 0.0 0.00 0.14 0.00 96 1018.3
20260508111724 48 0.0 0.0 0.00 0.14 0.00 96 1018.1
20260508110723 48 0.0 0.0 0.00 0.15 0.00 96 1018.0
20260508105744 47 0.0 0.0 0.00 0.17 0.00 96 1017.8
20260508104723 47 0.0 0.0 0.00 0.19 0.00 95 1017.7
20260508103723 47 0.0 0.0 0.00 0.20 0.00 95 1017.5
20260508102804 47 0.0 0.0 0.00 0.20 0.00 95 1017.2
20260508101723 48 0.0 0.0 0.00 0.20 0.00 95 1017.0
20260508100724 48 0.0 0.0 0.00 0.20 0.00 95 1016.9
20260508095743 48 0.0 0.0 0.00 0.20 0.00 95 1016.8
20260508094723 48 0.0 0.0 0.00 0.20 0.00 95 1016.8
20260508093723 48 0.0 0.0 0.00 0.20 0.00 95 1016.8
20260508092723 48 0.0 0.0 0.00 0.20 0.00 95 1016.8
20260508091723 48 0.0 0.0 0.00 0.20 0.00 94 1016.8
20260508090723 48 0.0 0.0 0.00 0.20 0.00 94 1016.5
20260508085723 48 0.0 0.0 0.00 0.20 0.00 95 1016.5
20260508084724 48 0.0 0.0 0.00 0.20 0.00 95 1016.5
20260508083723 48 0.0 0.0 0.00 0.20 0.00 95 1016.5
20260508082804 48 0.0 0.0 0.00 0.21 0.00 95 1016.4
20260508081743 48 0.0 0.0 0.00 0.21 0.00 94 1016.2
20260508080723 48 0.0 0.0 0.00 0.21 0.00 94 1016.2
20260508075724 48 0.0 0.0 0.00 0.21 0.00 94 1016.1
20260508074723 48 0.0 0.0 0.00 0.21 0.00 93 1016.0
20260508073724 48 0.0 0.0 0.00 0.21 0.00 92 1016.0
20260508072743 48 0.0 0.0 0.00 0.22 0.00 91 1015.9
20260508071723 48 0.0 0.0 0.00 0.25 0.00 90 1015.9
20260508070824 49 0.0 0.0 0.00 0.27 0.00 90 1015.8
20260508065723 49 0.0 0.0 0.00 0.31 0.00 89 1015.7
20260508064724 50 0.0 0.0 0.00 0.36 0.00 89 1015.7
20260508063824 50 0.0 0.0 0.00 0.41 0.00 89 1015.6
20260508062823 51 0.0 0.0 0.00 0.45 0.00 88 1015.6
20260508061823 51 0.0 0.0 0.00 0.47 0.00 89 1015.7
20260508060824 51 0.0 0.0 0.00 0.48 0.00 89 1015.8
20260508055823 51 0.0 0.0 0.00 0.48 0.00 89 1015.8
20260508054823 52 64 0.9 0.9 0.00 0.49 0.00 88 1015.8
20260508053823 52 0.0 0.0 0.00 0.49 0.00 86 1015.7
20260508052903 52 0.0 0.0 0.00 0.55 0.00 85 1015.8
20260508051824 53 0.0 0.0 0.00 0.73 0.00 84 1015.7
20260508051604 53 0.0 0.0 0.00 0.74 0.00 84 1015.6
20260508050344 54 44 0.9 1.7 0.00 0.77 0.00 79 1015.6
20260508050023 55 33 0.9 0.9 0.00 0.79 0.00 78 1015.5
20260508045024 55 14 0.9 1.7 0.00 0.81 0.00 75 1015.4
20260508044023 55 235 0.9 1.7 0.00 0.81 0.00 76 1015.4
20260508043103 55 26 0.9 0.9 0.00 0.81 0.00 75 1015.2
20260508042023 56 60 0.0 0.9 0.00 0.81 0.00 75 1015.2
20260508041024 56 0.0 0.0 0.00 0.81 0.00 77 1015.3
20260508040024 57 0.0 0.0 0.00 0.81 0.00 75 1015.2
20260508035044 57 350 0.9 1.7 0.00 0.81 0.81 73 1015.2
20260508034023 56 11 0.9 0.9 0.00 0.81 0.81 75 1015.2
20260508033044 56 60 0.0 0.9 0.00 0.81 0.81 80 1015.1
20260508032024 56 0.0 0.0 0.00 0.81 0.81 80 1015.1
20260508031043 56 0.0 0.0 0.00 0.81 0.81 80 1015.1
20260508030024 57 0.0 0.0 0.00 0.81 0.81 85 1015.1
20260508025104 57 0.0 0.0 0.00 0.88 0.81 83 1015.0
20260508024024 58 0.0 0.0 0.00 1.05 0.81 83 1014.9
20260508023044 58 0.0 0.0 0.00 1.08 0.81 84 1014.8
20260508022023 58 0.0 0.0 0.00 1.08 0.81 82 1014.7
20260508021024 59 359 0.9 0.9 0.00 1.19 0.81 86 1014.6
20260508020023 59 354 0.0 0.9 0.00 1.25 0.81 91 1014.3
20260508015023 59 0.0 0.0 0.00 1.25 0.81 90 1014.3
20260508014124 60 95 0.9 0.9 0.00 1.26 0.81 89 1013.9
20260508013024 60 28 1.7 1.7 0.00 1.43 0.81 90 1013.7
20260508012024 60 257 1.7 1.7 0.00 1.45 0.81 90 1013.5
20260508011023 60 272 1.7 2.6 0.00 1.50 0.81 89 1013.3
20260508010023 61 40 0.9 1.7 0.00 1.54 0.81 89 1013.3
20260508005024 61 278 1.7 2.6 0.00 1.63 0.81 89 1013.0
20260508004024 61 0.0 1.7 0.00 1.65 0.81 89 1012.9
20260508003023 61 352 0.9 1.7 0.00 1.65 0.81 88 1012.6
20260508002024 61 7 0.0 0.9 0.00 1.68 0.81 88 1012.3
20260508001024 62 60 0.0 0.9 0.00 1.74 0.81 88 1012.0
20260508000024 62 274 1.7 2.6 0.00 1.80 0.81 87 1011.8
20260507235024 63 276 2.6 4.3 0.00 1.85 0.81 86 1011.6
20260507234024 63 148 2.6 3.5 0.00 1.87 0.81 85 1011.7
20260507233024 63 279 3.5 3.5 0.00 1.87 0.81 86 1011.3
20260507232024 64 283 3.5 5.2 0.00 1.87 0.81 84 1011.2
20260507231024 64 310 3.5 4.3 0.00 1.87 0.81 84 1010.9
20260507230024 65 267 2.6 4.3 0.00 1.87 0.81 83 1010.8
20260507225024 66 248 5.2 6.1 0.00 1.87 0.81 81 1010.3
20260507224024 67 328 2.6 4.3 0.00 1.87 0.81 81 1010.2
20260507223024 68 127 3.5 6.1 0.00 1.87 0.81 81 1009.9
20260507222024 72 284 3.5 4.3 0.00 1.87 0.81 75 1009.6
20260507221024 77 247 1.7 2.6 0.00 1.87 0.81 65 1009.0
20260507220024 77 115 2.6 4.3 0.00 1.87 0.81 64 1009.0
20260507215024 78 103 4.3 5.2 0.00 1.87 0.81 62 1008.9
20260507214024 79 223 2.6 4.3 0.00 1.87 0.81 62 1008.9
20260507213044 79 126 4.3 6.1 0.00 1.87 0.81 62 1008.8
20260507212024 78 125 4.3 6.1 0.00 1.87 0.81 63 1008.6
20260507211024 78 119 6.1 7.0 0.00 1.87 0.81 63 1008.5
20260507210024 76 145 5.2 6.1 0.00 1.87 0.81 69 1008.5
20260507205024 76 129 5.2 6.1 0.00 1.87 0.81 69 1008.5
20260507204024 75 107 3.5 5.2 0.00 1.87 0.81 70 1008.6
20260507203044 75 97 5.2 7.8 0.00 1.87 0.81 67 1008.8
20260507202044 77 120 5.2 7.0 0.00 1.87 0.81 62 1008.5
20260507201024 78 133 4.3 5.2 0.00 1.87 0.81 61 1008.4
20260507200024 79 101 5.2 5.2 0.00 1.87 0.81 57 1008.6
20260507195024 79 154 6.1 8.7 0.00 1.87 0.81 59 1008.8
20260507194024 79 137 4.3 6.1 0.00 1.87 0.81 59 1008.9
20260507193224 79 155 4.3 7.0 0.00 1.87 0.81 58 1008.9
20260507192224 79 115 4.3 7.0 0.00 1.87 0.81 62 1009.2
20260507191224 79 124 5.2 7.0 0.00 1.87 0.81 61 1009.3
20260507190225 78 5.2 6.1 0.00 1.87 0.81 63 1009.6
20260507185524 78 1.7 1.7 0.00 1.87 0.81 66 1009.5